Wind_Speed
90 90 90 91 92 93 93 94 94 94 94 94 92 92 94 95 95 95 95 95 95 95 94 95 95 96 96 98 100 101 101 101 101 102 102 102 102 102 102 102 102 102 102 102 102 101 101 101 102 103 104 103 104 105 105 106 106 106 106 105 104 104 104 104 103 100 97 99 102 103 104 105 106 107 107 107 107 107 107 107 108 109 110 110 110
92 92 93 93 94 95 95 96 96 96 96 95 95 95 97 97 97 97 96 97 97 97 97 97 98 98 99 101 102 103 103 103 104 104 104 104 104 104 104 104 104 104 103 103 103 103 103 103 104 105 106 106 106 107 107 108 108 107 107 106 105 105 107 108 107 105 103 103 106 107 108 110 110 110 111 110 109 109 109 109 110 111 112 112 112
94 94 95 95 96 96 97 97 98 98 97 97 97 98 99 99 99 99 99 99 99 99 99 99 100 101 102 103 104 105 105 106 106 106 105 105 106 106 106 106 106 105 105 105 105 105 105 106 106 107 108 108 109 110 110 110 110 109 108 108 108 108 109 110 111 110 108 107 108 111 112 113 113 113 113 113 113 113 113 113 113 113 114 115 114
96 96 97 97 97 98 98 99 99 99 99 99 100 101 102 101 101 101 100 100 100 100 101 102 103 103 105 106 107 107 108 108 108 108 108 108 108 109 108 108 107 106 106 106 107 107 108 108 109 109 110 110 111 112 112 112 111 111 110 110 111 111 112 113 114 114 114 112 112 114 116 116 115 116 116 116 116 115 115 115 115 115 115 116 115
98 98 99 99 99 100 100 100 100 100 100 101 103 104 104 103 103 102 102 102 102 103 104 105 105 106 107 108 109 110 110 110 110 110 110 111 110 110 110 109 108 108 108 108 108 109 110 110 111 112 112 112 113 113 113 113 112 112 112 113 114 114 115 116 118 119 119 118 117 117 118 119 119 119 119 119 118 118 117 117 117 116 116 116 116
100 100 100 100 101 101 101 101 101 102 103 105 106 106 106 105 105 105 105 105 105 106 107 107 107 108 110 111 112 112 112 112 112 112 112 112 112 111 111 110 110 110 110 110 111 111 112 112 113 114 115 115 115 115 114 114 114 114 115 116 117 118 119 120 122 123 124 124 122 121 121 122 122 122 122 122 122 121 120 120 120 119 118 118 118
102 101 101 102 102 102 102 103 103 105 106 107 108 108 107 107 107 107 107 108 108 108 109 109 109 111 113 114 114 115 114 114 114 114 114 113 113 112 112 112 112 112 112 113 113 114 115 115 116 117 117 117 117 116 116 116 116 117 118 119 120 122 123 124 125 127 128 128 127 126 126 126 125 125 125 126 125 124 124 124 122 121 120 120 119
103 103 102 103 103 104 105 105 106 108 109 110 109 109 109 108 109 109 110 110 110 110 110 111 112 114 115 116 116 116 116 115 115 115 115 114 114 114 113 114 114 114 115 115 116 117 118 118 119 119 119 119 118 118 118 118 119 120 121 123 124 125 126 127 128 130 131 132 131 131 130 129 128 128 129 129 128 127 127 126 124 123 123 122 120
105 105 105 106 106 107 108 108 110 111 112 112 111 111 111 110 110 111 111 111 111 110 112 114 116 117 117 117 117 117 117 117 117 116 116 116 115 115 115 116 116 116 117 118 119 120 120 121 121 121 120 120 120 120 121 122 123 124 125 126 128 129 129 130 132 133 134 135 135 134 134 132 130 131 131 131 130 130 129 128 127 126 125 124 122
108 108 108 109 109 110 111 112 113 113 113 113 113 112 112 112 112 112 112 111 111 113 115 117 118 118 118 118 119 119 119 118 118 118 117 117 117 117 117 118 118 118 119 120 121 122 122 122 122 121 121 121 122 123 124 126 127 128 129 130 131 132 133 134 135 137 138 138 138 138 137 135 133 133 133 133 132 132 131 130 129 128 127 126 124
110 111 111 111 112 113 114 114 115 114 114 114 114 114 113 113 113 112 112 113 114 117 118 118 119 119 119 120 120 120 120 120 119 119 119 119 119 118 119 119 120 121 122 122 123 123 123 123 122 122 123 124 125 126 127 129 130 132 133 134 135 137 138 139 140 141 142 143 142 141 139 137 135 135 135 135 135 134 132 131 130 130 129 128 126
113 113 113 114 115 115 116 116 115 115 115 115 115 114 114 113 113 113 114 116 118 119 119 119 119 120 120 121 121 121 121 121 121 122 122 121 121 121 121 122 123 124 124 125 124 124 124 123 123 123 125 126 128 129 130 132 133 135 136 137 138 140 142 143 144 145 146 147 146 144 141 139 137 136 136 136 136 135 133 133 132 131 131 130 128
115 115 115 116 116 116 116 116 116 116 115 115 115 114 113 113 114 115 117 119 120 120 120 120 120 121 121 121 121 122 123 123 124 124 124 124 124 124 124 125 125 126 126 126 126 125 125 124 124 125 126 129 131 133 134 135 137 138 139 139 141 142 144 146 147 148 149 149 148 145 143 141 139 138 138 139 138 137 136 135 135 134 133 132 131
116 116 116 116 116 116 116 116 116 116 116 115 114 114 114 115 117 119 120 121 120 120 121 121 121 121 121 121 122 124 125 126 126 126 126 126 126 126 127 127 127 127 127 127 127 126 126 126 127 128 129 132 134 137 139 140 140 141 142 143 144 145 146 147 148 149 150 150 148 146 144 143 142 141 141 142 142 141 139 139 138 137 136 135 135
116 116 116 117 117 117 117 116 116 116 115 115 115 116 118 119 121 121 121 121 121 121 121 121 122 122 123 124 125 126 127 128 128 128 128 129 129 129 129 129 129 129 128 128 128 128 129 130 131 132 134 135 138 140 142 144 144 145 145 146 146 147 147 147 147 149 150 149 148 147 145 145 144 144 144 145 145 145 144 143 142 141 140 139 137
117 117 117 117 117 117 117 116 116 116 116 117 118 120 121 122 122 122 122 122 122 122 123 123 124 125 126 127 128 128 129 130 130 130 131 131 131 132 131 131 131 130 130 130 130 131 132 134 136 138 139 140 142 144 146 148 149 149 149 149 149 148 147 146 148 149 149 148 148 148 147 146 146 146 147 148 148 148 148 147 146 145 145 142 138
117 117 117 117 117 117 116 116 117 118 119 121 122 123 123 123 123 123 123 123 124 125 125 126 127 128 129 129 129 130 130 131 132 133 134 134 134 134 133 133 132 132 132 132 133 135 137 139 141 143 144 145 146 148 150 152 153 153 153 152 150 148 146 146 148 148 148 148 148 148 148 148 148 148 148 149 149 150 151 150 148 147 146 143 139
117 117 116 116 116 116 117 119 121 122 124 124 124 124 124 124 124 125 125 126 127 127 128 129 129 130 130 130 130 131 132 133 135 135 136 136 136 135 135 134 135 135 135 136 137 139 141 143 145 147 149 150 151 152 153 155 156 155 154 153 150 148 147 147 148 147 147 148 148 148 149 149 149 149 149 149 150 150 151 149 147 145 143 140 137
116 116 117 118 119 121 123 124 125 126 126 126 125 125 126 126 126 127 127 128 128 129 129 130 130 131 131 131 132 133 134 135 136 136 137 137 137 137 137 137 138 139 139 140 141 143 145 147 149 151 152 154 154 155 156 156 156 155 154 152 150 148 147 147 147 147 147 147 147 148 149 149 149 149 149 148 148 148 147 146 144 141 138 135 133
119 121 122 123 125 126 126 126 126 126 126 126 126 127 127 127 128 128 129 129 130 130 130 130 130 131 132 133 134 135 135 136 137 137 138 138 139 139 140 141 142 144 145 145 146 148 149 151 152 154 155 157 157 157 156 156 155 154 153 151 150 149 148 147 147 147 147 148 148 148 148 147 147 146 145 144 142 141 141 139 137 136 133 130 128
124 125 125 126 126 126 126 126 126 126 126 127 127 127 128 129 129 130 130 130 130 130 131 131 131 132 133 134 135 135 136 137 137 138 139 140 142 143 144 146 148 149 150 152 153 153 154 155 155 156 157 157 157 157 156 155 154 153 152 152 151 150 150 149 149 148 148 148 147 145 143 142 141 140 138 136 134 132 131 130 129 129 128 126 124
125 125 125 125 125 125 126 126 126 126 127 127 128 129 130 130 130 131 131 130 131 131 132 132 133 133 134 134 135 136 137 138 139 141 142 144 145 147 149 151 153 155 156 157 158 158 158 158 158 157 157 156 156 155 155 154 153 152 152 153 153 154 154 153 151 149 147 144 141 138 135 133 131 130 129 128 126 124 124 123 122 123 123 122 121
124 124 124 124 125 125 125 126 127 127 128 129 130 130 131 131 131 131 131 131 132 133 133 134 134 134 134 134 135 137 138 140 142 144 145 147 149 151 154 156 158 160 161 162 162 161 160 159 157 156 155 154 153 153 152 152 152 152 154 155 156 156 155 153 150 146 142 138 134 130 127 125 123 123 122 121 120 119 118 118 117 117 117 116 116
123 124 124 124 125 126 127 128 128 129 130 130 130 130 131 131 131 132 132 133 133 134 134 134 134 134 135 135 136 138 140 143 145 147 149 152 154 156 158 160 162 164 165 164 163 161 159 157 155 154 153 152 151 151 151 151 152 154 155 155 155 153 150 147 143 139 135 130 127 125 122 121 120 119 117 116 115 114 113 112 111 110 110 109 109
124 124 125 126 127 128 128 129 130 130 130 130 130 131 131 132 132 133 134 134 134 134 135 135 136 137 137 138 139 141 144 146 149 152 154 156 158 160 161 163 164 165 164 163 161 159 157 156 154 153 151 151 151 152 152 153 154 154 153 152 149 146 142 139 135 131 128 125 123 121 119 117 116 115 113 112 110 109 108 107 106 105 105 105 104
125 126 126 127 128 129 129 129 130 130 130 131 131 131 132 132 133 133 134 135 135 136 137 138 139 140 141 143 144 146 149 152 154 156 158 160 161 162 163 163 163 162 162 161 159 157 156 155 154 153 153 153 154 154 154 153 151 149 146 143 141 138 135 132 130 127 125 122 120 117 114 112 111 110 109 108 107 105 105 104 103 102 102 102 100
126 127 127 128 128 129 129 129 129 130 130 131 132 132 132 133 134 134 135 136 137 139 140 142 143 145 147 149 150 152 154 156 158 160 161 162 162 162 161 161 160 160 159 158 156 155 154 154 154 155 155 155 155 153 151 148 145 141 138 136 134 132 130 128 127 125 122 119 116 113 110 108 107 106 105 105 104 103 103 103 101 100 99 99 98
127 127 127 128 128 128 128 129 129 130 131 132 132 133 134 135 136 137 138 139 141 142 144 146 148 150 152 154 156 157 158 160 161 162 162 162 161 160 159 158 157 156 156 155 154 153 153 154 154 154 153 152 149 146 143 140 137 135 132 131 129 128 126 124 123 120 118 116 113 110 107 106 104 103 102 102 101 101 101 101 100 98 97 97 94
126 126 127 127 128 128 129 130 130 131 132 133 133 134 135 137 138 140 142 144 146 147 149 151 154 156 157 159 160 160 160 160 160 161 161 160 160 159 158 156 155 154 154 154 154 154 153 153 151 149 147 145 142 139 136 134 132 130 128 126 125 123 121 119 118 116 115 113 111 109 106 104 103 101 100 99 97 97 97 98 97 95 94 92 90
126 127 127 128 129 129 130 130 131 132 133 134 135 136 138 140 142 144 146 149 151 153 155 156 158 159 160 160 161 161 160 160 160 160 159 159 158 157 156 155 156 156 156 156 155 154 152 149 146 144 141 139 137 134 132 130 127 125 123 121 119 117 115 114 114 113 111 110 109 107 105 103 101 99 97 94 92 91 91 91 91 90 88 87 85
127 127 128 129 129 130 130 131 132 133 135 136 138 140 142 145 147 150 152 154 156 157 158 159 159 159 159 159 160 160 161 161 161 160 159 158 156 156 155 156 158 158 158 157 155 152 149 145 142 139 138 136 134 132 129 126 123 121 118 116 114 113 112 111 110 109 108 106 105 103 102 100 98 95 93 90 87 85 85 85 85 85 84 82 80
127 128 128 129 130 131 132 134 136 137 139 141 143 145 147 149 151 153 155 156 157 157 157 157 158 158 159 160 160 161 161 161 161 160 159 158 157 157 157 158 159 159 157 154 151 148 145 142 139 137 135 133 131 129 126 123 120 117 115 113 112 111 110 109 107 106 104 102 100 98 97 96 94 92 89 86 83 81 80 79 80 80 80 79 77
128 130 131 132 134 135 137 139 141 143 145 147 148 150 151 152 152 153 153 154 154 155 155 156 158 159 160 161 161 161 161 160 160 160 160 160 160 159 159 159 158 155 152 149 145 143 140 138 136 134 132 131 128 126 123 120 117 115 113 112 110 108 107 105 104 102 100 98 96 94 93 92 91 89 86 84 81 78 76 75 75 75 75 75 73
132 134 135 137 138 140 142 144 146 148 149 150 151 152 152 151 151 150 150 151 152 153 155 157 158 159 160 161 161 160 160 160 160 160 161 161 161 160 158 155 152 149 146 143 141 139 137 135 133 131 129 128 126 124 121 118 116 114 112 110 108 106 104 102 101 99 97 95 93 91 90 89 88 86 84 82 80 77 75 73 72 71 71 71 70
137 138 140 141 143 145 146 148 149 149 150 150 150 150 150 150 150 150 150 151 152 153 155 156 157 158 159 159 160 160 160 160 160 161 161 161 159 156 152 148 145 142 141 140 138 137 135 132 130 128 126 125 124 123 120 118 115 112 110 108 106 104 102 101 99 97 95 93 91 89 88 87 85 84 82 80 78 77 74 72 70 69 69 68 68
141 143 144 145 146 147 148 148 148 148 148 148 148 149 149 150 150 151 152 153 153 154 155 156 156 157 158 158 159 160 160 160 161 160 159 157 154 150 146 143 140 138 137 136 135 133 132 129 127 125 124 123 122 121 119 116 113 109 107 105 103 102 100 99 97 95 93 91 89 87 86 84 83 82 79 78 76 75 74 72 70 68 67 67 66
144 144 144 145 145 145 146 146 146 146 147 147 148 149 150 150 151 152 153 153 154 154 155 155 156 156 157 158 158 159 159 159 158 156 153 150 147 144 142 139 137 135 134 132 131 130 128 126 124 122 121 120 119 118 116 113 110 106 104 103 102 100 98 96 95 93 90 88 87 85 83 82 80 79 77 75 74 73 72 70 69 67 66 66 65
142 142 142 142 143 144 144 145 146 146 147 148 149 149 150 151 151 152 153 153 154 155 155 156 156 156 156 157 157 157 157 155 152 149 146 144 142 141 139 137 135 133 131 129 128 126 125 123 122 120 118 116 115 114 112 110 108 104 101 100 99 97 95 93 91 89 87 85 83 82 80 78 77 75 74 72 71 70 69 68 67 65 65 64 63
140 141 141 142 143 144 145 145 146 146 147 148 148 149 150 150 151 152 153 154 155 155 156 156 156 156 156 156 155 153 150 147 144 142 140 139 138 137 135 134 132 129 128 126 125 123 122 121 118 116 114 113 112 111 110 108 106 103 100 97 95 94 92 90 88 86 84 82 80 78 76 75 73 72 71 69 68 67 66 65 64 63 62 62 61
140 141 142 142 143 144 144 145 145 146 147 147 148 149 150 151 152 153 154 154 155 155 156 156 156 155 154 152 149 146 143 141 139 137 136 135 134 132 131 129 128 126 125 124 122 121 119 117 114 112 111 109 108 108 107 105 103 100 98 94 91 89 88 87 85 83 81 79 77 75 74 72 70 69 67 66 65 64 63 62 61 60 60 60 59
140 141 141 142 143 143 144 145 145 146 147 148 149 150 151 152 153 154 154 155 155 155 155 155 153 151 149 146 143 141 138 136 135 134 133 131 130 128 127 126 124 123 122 121 120 118 116 114 112 110 108 106 105 104 103 102 100 97 94 92 89 87 85 84 82 80 78 76 74 73 71 70 68 67 65 64 62 61 60 59 58 58 58 57 57
139 140 141 141 142 143 144 145 146 147 148 149 150 151 152 153 153 154 154 155 155 154 153 151 148 145 143 141 139 137 135 133 131 130 129 127 126 125 124 123 123 121 120 118 116 115 113 112 110 108 105 103 102 100 99 98 96 94 92 90 87 85 83 82 80 78 76 74 72 70 69 67 66 65 63 62 60 59 58 57 56 56 56 55 55
139 140 141 142 142 143 145 146 147 148 149 150 151 152 153 153 154 154 154 153 152 150 147 145 142 140 139 137 136 133 131 129 128 127 125 124 123 123 122 122 121 119 117 115 113 111 110 108 106 104 102 100 98 96 95 94 93 92 90 88 86 83 81 79 78 76 74 72 70 68 67 66 64 63 62 60 59 58 57 56 55 54 54 54 54
139 140 141 142 143 144 145 147 148 149 150 151 152 153 153 153 153 153 151 149 147 144 142 140 138 137 135 133 131 129 127 126 125 123 122 121 121 121 120 120 119 117 116 114 111 108 105 103 101 100 98 96 94 92 90 89 88 88 87 85 83 81 78 76 75 73 72 70 68 66 65 64 62 61 60 59 57 56 56 55 54 53 53 53 52
139 140 141 143 144 145 147 148 149 150 151 152 152 153 152 152 150 148 146 144 142 140 139 137 135 133 131 129 127 125 124 123 122 121 120 119 119 118 117 117 116 115 113 111 108 105 102 100 98 96 95 93 91 89 87 86 85 84 83 81 80 78 76 74 72 70 69 68 66 64 63 61 60 59 58 57 56 55 54 54 53 53 52 52 52
141 142 143 145 146 147 148 149 150 151 151 151 151 150 149 147 146 144 142 140 139 137 135 133 131 129 127 125 123 122 121 121 120 119 118 117 116 116 115 114 113 111 108 106 104 102 100 97 95 93 92 90 88 87 85 84 82 80 79 78 77 75 73 71 69 68 66 65 64 62 61 59 58 57 56 55 54 53 53 52 52 52 51 51 51
143 144 146 147 148 149 149 150 150 150 149 148 147 146 145 143 142 140 139 137 136 133 131 129 127 126 124 122 121 120 120 119 118 117 116 115 114 113 112 110 108 106 104 103 101 100 98 95 93 91 89 88 86 85 83 81 79 77 76 75 74 73 71 69 67 66 64 62 61 60 59 58 56 55 54 54 53 53 52 51 51 51 51 50 50
146 147 147 148 148 149 149 148 148 147 146 145 143 142 141 140 139 137 135 133 131 130 128 126 124 123 122 121 120 119 118 117 115 114 114 113 111 109 107 105 103 102 101 100 99 97 96 94 92 89 88 86 84 82 80 78 77 75 73 72 71 70 69 68 66 64 62 60 59 57 57 56 55 53 52 52 51 51 51 51 50 50 50 50 50
147 148 148 148 147 147 146 145 145 143 142 141 140 139 138 137 135 133 131 129 128 126 125 123 122 121 120 119 118 117 116 114 113 112 110 109 107 105 103 102 100 99 98 97 96 95 94 92 90 88 86 84 82 80 78 76 75 73 71 69 68 67 67 66 65 63 61 59 57 56 55 54 53 52 51 51 50 50 50 49 49 49 49 49 49
147 147 146 146 145 144 144 143 142 141 140 139 138 136 135 133 131 130 128 127 125 124 123 122 120 119 118 117 116 115 113 112 110 108 106 105 103 102 100 99 98 97 96 95 93 92 91 90 89 87 84 82 79 77 76 74 73 71 70 68 66 65 64 64 63 62 60 59 57 55 54 53 52 51 50 50 49 49 49 48 48 48 48 48 48
146 145 144 143 143 142 141 140 139 138 137 136 134 133 131 130 129 127 126 125 123 122 121 120 119 117 116 115 113 112 110 108 106 104 103 102 101 99 98 97 96 95 94 93 91 90 89 88 87 85 83 80 77 75 74 72 71 70 68 67 65 64 63 62 61 60 59 58 56 55 54 52 51 50 50 49 49 48 48 48 48 48 48 48 48
Wind_Direction
290 290 290 290 291 292 292 293 293 293 294 296 296 297 299 300 300 300 300 299 299 299 299 299 299 300 300 300 302 303 303 303 304 304 304 305 305 305 306 306 306 306 306 306 306 307 307 307 307 307 307 307 307 306 306 306 307 307 307 307 307 307 306 307 308 309 309 308 308 307 307 306 306 306 305 305 304 304 304 304 304 305 305 306 306
290 290 290 291 291 292 292 292 292 293 294 295 296 297 298 299 299 299 298 298 298 298 298 298 299 299 299 300 301 302 302 302 303 304 304 304 305 305 305 306 306 306 306 306 306 306 307 307 306 306 306 306 306 305 306 306 306 306 306 306 306 306 306 306 307 308 308 308 307 307 306 306 306 306 305 305 305 304 304 304 304 305 305 306 307
289 290 290 290 290 291 291 291 292 292 293 294 295 296 297 298 298 298 297 297 297 297 297 298 298 298 299 299 300 301 301 302 303 303 304 304 304 304 305 305 305 306 306 306 306 306 306 305 305 305 305 305 305 305 305 305 305 305 305 305 305 305 305 306 307 307 308 307 307 306 305 305 305 305 305 305 305 304 304 304 304 305 305 306 307
288 289 289 289 289 289 290 290 291 291 292 293 295 296 296 297 297 297 297 296 296 296 296 297 297 297 298 299 300 301 301 302 302 303 303 303 304 304 305 305 305 305 305 305 305 305 305 304 304 304 304 304 304 304 304 304 305 305 305 305 305 305 305 305 306 306 306 306 306 305 305 305 305 305 305 305 304 304 304 304 304 304 305 305 306
287 288 288 288 288 289 289 289 290 291 292 293 294 295 296 296 296 296 296 296 295 295 295 296 296 297 298 299 300 300 301 302 302 302 303 303 304 304 304 305 304 304 304 304 304 303 303 303 303 304 303 303 303 303 304 304 304 304 305 304 304 305 305 305 305 305 305 306 305 305 305 305 305 305 305 304 304 304 304 303 303 303 303 303 303
287 287 288 288 288 288 288 289 290 291 292 293 294 295 295 295 295 295 295 295 295 295 295 296 296 297 298 299 300 300 301 301 302 302 303 303 303 304 304 304 303 303 303 303 303 303 303 303 303 303 303 303 303 303 303 303 304 304 304 304 304 304 304 304 304 305 305 306 306 306 305 305 305 305 304 303 303 303 303 302 302 302 302 301 301
287 287 287 287 287 288 288 289 290 291 292 293 294 294 294 295 295 295 295 295 295 295 295 296 297 298 298 299 300 300 301 301 301 302 302 302 303 303 302 302 302 302 302 302 302 302 303 303 302 303 303 303 303 303 303 303 303 303 303 303 303 304 304 304 304 305 305 306 306 306 305 305 305 305 303 303 303 302 302 301 301 301 300 300 300
286 286 286 286 287 287 288 289 289 290 291 292 293 293 293 293 293 293 294 294 294 294 295 296 297 297 298 299 299 300 300 300 301 301 301 301 301 301 301 301 301 301 301 302 302 302 302 302 302 302 302 302 302 302 302 303 303 303 303 303 303 304 304 304 305 305 305 305 305 305 304 304 304 303 302 302 302 301 301 301 301 300 299 299 299
285 285 285 286 286 287 287 288 289 290 291 291 292 292 292 292 292 292 293 293 293 294 295 296 296 297 298 298 298 299 299 299 300 300 300 300 300 300 300 300 301 301 301 301 301 302 302 302 302 302 302 302 302 302 302 302 302 303 303 303 304 304 304 304 304 304 304 303 303 303 303 303 303 302 301 301 301 301 301 301 300 300 299 299 299
284 285 285 285 286 286 287 288 289 290 290 291 291 291 291 291 291 292 292 292 293 294 295 295 296 297 297 297 298 298 298 298 299 299 299 299 299 299 299 300 300 300 300 300 301 301 301 301 301 301 301 301 301 301 302 302 302 303 303 303 303 303 303 303 303 303 303 302 302 302 302 302 302 302 301 301 301 301 301 301 301 300 300 300 300
284 284 285 285 286 286 287 288 289 289 289 290 290 290 290 290 290 291 291 292 293 294 295 295 296 296 297 297 297 297 297 298 298 298 298 298 298 298 299 299 299 299 300 300 300 300 300 300 301 301 301 301 301 301 301 302 302 303 303 303 303 303 303 303 303 303 302 302 302 302 302 302 302 302 302 301 301 301 301 301 301 300 300 300 300
284 284 285 285 286 286 287 288 288 288 289 289 289 289 290 290 290 291 291 292 293 294 294 295 295 296 296 296 296 296 297 297 297 297 297 298 298 298 298 299 299 299 299 299 300 300 300 300 300 300 300 300 300 301 301 301 301 301 302 302 302 302 303 303 303 302 302 302 302 302 302 302 302 302 302 301 301 302 302 301 301 301 300 301 300
283 284 285 285 286 286 287 287 288 288 288 289 289 289 289 290 290 291 292 293 293 293 294 294 295 295 295 295 296 296 296 296 296 297 297 297 298 298 298 298 299 299 299 299 299 299 299 299 299 299 299 299 299 299 300 300 300 301 301 301 302 302 302 302 302 302 301 301 301 302 302 303 303 303 302 302 302 302 302 302 301 301 301 301 300
283 283 284 284 285 286 286 287 287 287 288 288 288 288 289 289 290 291 292 292 292 293 293 294 294 294 294 294 294 295 295 295 296 296 296 297 297 297 297 298 298 298 298 298 298 298 298 297 297 298 298 298 298 299 299 299 300 300 301 301 301 301 301 301 301 300 300 301 301 302 303 303 303 303 303 302 302 302 302 302 301 301 301 300 299
282 283 283 284 284 285 285 286 286 286 287 287 287 288 289 289 290 291 291 291 292 292 292 293 293 293 293 293 294 294 294 295 295 295 296 296 296 296 296 296 297 297 297 297 297 297 297 297 297 298 298 298 299 299 299 299 300 300 300 300 300 300 300 300 300 299 300 300 301 302 302 303 303 303 302 302 302 302 302 301 301 301 300 299 299
282 282 283 283 284 284 284 285 285 285 286 286 287 288 288 289 289 290 290 291 291 291 291 292 292 292 293 293 293 294 294 294 294 295 295 295 295 295 296 296 296 296 296 296 297 297 297 298 298 298 298 299 299 299 299 299 300 300 300 300 300 300 300 300 299 299 300 301 301 302 302 302 302 302 302 301 301 301 300 300 300 300 299 298 298
281 281 282 282 283 283 283 284 284 285 286 286 287 287 288 288 289 289 289 290 290 291 291 291 292 292 292 293 293 293 294 294 294 294 294 295 295 295 296 296 296 296 296 297 297 297 298 298 298 298 299 299 299 299 299 300 300 301 301 300 300 300 300 300 299 299 300 301 301 301 301 301 301 301 301 300 300 299 299 299 298 298 297 297 298
280 281 281 281 282 282 283 283 284 285 285 286 286 287 287 287 288 288 289 289 290 290 291 291 292 292 292 292 293 293 293 293 294 294 294 295 295 295 296 296 296 296 296 297 297 297 298 298 298 298 299 299 299 299 299 300 300 300 300 300 300 301 300 299 299 300 300 300 300 301 300 300 300 300 299 299 298 298 297 297 297 296 296 296 296
279 280 280 281 281 282 282 283 284 284 285 285 286 286 287 287 288 288 289 289 290 290 290 291 291 291 292 292 292 293 293 293 294 294 294 294 295 295 295 296 296 296 296 297 297 297 298 298 298 298 299 299 299 299 299 300 300 300 300 300 300 300 300 300 299 300 300 299 300 299 299 299 299 299 298 297 297 296 296 296 296 295 296 296 296
278 279 279 280 281 281 282 282 283 284 284 285 285 286 287 287 288 288 289 289 289 290 290 290 291 291 291 292 292 293 293 293 294 294 294 294 295 295 295 296 296 296 296 297 297 297 298 298 298 299 299 299 299 299 300 300 300 300 300 300 300 300 300 300 299 299 299 299 299 299 298 298 298 297 297 296 295 295 294 294 295 295 295 295 294
278 278 279 280 280 281 282 282 283 284 284 285 286 286 287 287 288 288 289 289 289 289 290 290 290 291 291 292 292 293 293 293 294 294 294 294 295 295 296 296 296 297 297 297 298 298 298 299 299 299 299 299 299 300 300 300 300 300 300 300 300 300 300 300 300 300 299 299 298 298 298 297 296 296 295 295 294 294 293 294 294 294 294 294 293
278 278 279 280 280 281 282 283 283 284 285 285 286 286 287 287 288 288 289 289 289 289 290 290 291 291 292 292 293 293 293 294 294 294 294 295 295 295 296 296 297 297 298 298 298 299 299 300 300 299 299 300 300 300 300 300 300 300 300 300 300 300 300 300 300 299 299 298 298 298 297 296 296 295 294 294 294 294 293 293 293 292 292 292 292
278 279 280 280 281 282 283 283 284 285 285 286 286 287 287 288 288 288 289 289 289 290 290 291 291 291 292 292 293 293 293 294 294 294 294 295 295 296 296 296 297 297 298 299 299 299 300 300 300 300 300 300 300 300 300 300 300 300 300 300 300 299 299 299 299 299 298 298 298 298 297 296 296 295 294 294 294 293 293 293 292 291 291 291 291
279 280 281 281 282 283 284 284 285 285 286 286 287 287 288 288 288 289 289 289 290 290 291 291 291 292 292 292 293 293 293 293 294 294 294 295 295 296 296 296 297 298 298 299 299 300 300 300 300 300 300 300 300 300 300 300 300 300 299 299 299 299 298 298 298 298 298 298 298 298 297 297 296 295 295 294 294 293 293 292 291 291 291 291 291
280 281 282 282 283 284 284 285 285 286 286 287 287 287 288 288 289 289 289 290 290 290 291 291 291 291 292 292 292 292 293 293 293 294 294 295 295 296 296 296 297 298 298 299 299 300 300 301 301 301 301 300 300 300 300 300 299 299 299 299 298 298 298 298 298 298 298 298 298 297 297 297 296 296 295 294 294 293 292 292 291 291 291 291 291
281 281 282 283 283 284 284 285 285 286 286 287 287 288 288 288 289 289 289 290 290 290 291 291 291 291 292 292 292 293 293 293 293 294 294 295 295 296 296 297 297 298 299 299 300 300 301 301 301 301 301 301 300 300 300 299 299 299 299 299 299 299 299 299 299 299 298 298 298 297 297 296 296 295 295 294 293 293 292 291 291 291 291 291 291
281 282 282 283 284 284 285 285 286 286 287 287 287 288 288 288 288 289 289 289 290 290 290 291 291 292 292 293 293 293 294 294 294 294 294 295 295 296 297 297 298 299 299 300 300 300 300 300 300 300 300 300 300 299 299 299 299 299 299 299 299 299 299 299 299 298 298 298 297 297 296 296 295 294 294 293 293 292 292 291 291 291 290 290 291
281 282 283 283 284 284 285 285 286 286 286 287 287 287 288 288 288 289 289 290 290 290 291 292 292 293 293 293 293 293 293 294 294 294 295 295 296 297 297 298 299 299 299 299 300 300 300 300 299 299 299 299 299 299 299 299 299 299 300 299 299 299 299 299 298 298 297 297 297 296 296 295 294 293 292 292 292 291 291 291 291 290 290 290 290
282 282 283 283 283 284 284 285 285 285 286 286 287 287 288 288 289 289 290 290 291 291 292 292 292 293 293 293 293 293 294 294 294 295 296 296 297 298 298 299 299 299 299 300 300 300 300 300 300 300 299 299 299 299 299 299 299 300 300 299 299 299 299 298 297 297 297 296 296 296 295 294 293 293 292 291 291 290 290 289 290 290 289 289 289
281 282 282 282 283 283 284 284 285 285 286 286 287 288 288 289 289 290 290 291 291 292 292 292 292 293 293 293 294 294 294 295 295 296 297 297 298 299 299 300 300 300 300 301 301 301 301 301 301 300 300 300 300 300 300 300 300 300 300 299 299 298 298 297 296 296 296 296 295 295 295 294 294 293 292 292 291 290 289 289 289 289 288 288 288
281 281 282 282 283 283 284 284 285 285 286 287 287 288 288 289 289 290 291 291 291 292 292 292 293 293 293 294 294 295 295 296 297 297 298 298 299 299 300 300 301 301 301 302 302 302 302 302 301 301 301 301 301 301 301 301 301 300 300 300 299 298 297 297 296 296 296 295 295 295 295 294 294 293 293 292 291 290 289 288 288 288 288 288 288
280 281 281 282 282 283 284 284 285 286 286 287 287 288 288 289 290 290 291 291 292 292 292 293 293 293 294 294 295 295 296 297 297 298 298 299 300 300 301 301 301 302 302 302 302 302 302 302 301 301 301 301 301 301 301 301 301 301 301 300 299 298 298 297 297 296 296 296 295 295 294 294 294 293 293 292 291 290 289 288 287 287 287 287 287
280 281 281 282 283 284 284 285 286 286 287 287 288 288 289 289 290 290 291 291 292 292 292 293 293 293 294 294 295 296 296 297 298 298 299 300 300 301 301 301 302 302 302 301 301 301 301 301 301 301 302 302 302 302 302 302 302 301 301 300 300 299 299 298 298 297 297 296 296 295 295 294 294 293 293 293 292 291 289 288 287 286 286 286 286
280 281 282 283 284 284 285 285 286 286 287 287 288 288 289 289 289 290 290 290 291 291 292 292 293 293 294 294 295 296 296 297 298 298 299 300 300 301 301 301 301 301 301 301 301 301 301 301 302 302 302 302 302 303 303 302 302 302 302 301 301 301 300 300 299 298 298 297 296 296 295 294 294 293 293 292 292 291 289 288 287 286 285 285 285
281 282 283 283 284 284 285 285 286 286 287 287 288 288 288 289 289 289 290 290 290 290 291 292 292 293 294 294 295 296 297 297 298 299 299 300 300 300 301 301 301 301 301 301 301 301 302 302 302 303 303 303 303 303 303 303 303 303 303 303 302 302 301 301 300 299 299 298 297 296 295 295 294 293 293 292 291 290 289 288 287 285 284 284 284
282 282 283 283 284 284 284 285 285 286 286 287 287 288 288 288 289 289 289 289 290 290 291 291 292 293 294 294 295 296 297 298 298 299 299 300 300 300 301 301 301 301 301 301 301 301 302 302 303 303 303 304 304 303 303 303 303 303 303 303 302 302 301 301 300 299 299 298 298 297 296 295 294 293 293 292 291 290 289 288 287 285 284 283 282
282 282 283 283 283 284 284 285 285 286 286 287 287 287 288 288 288 289 289 289 290 290 291 291 292 293 294 295 296 297 297 298 299 299 300 300 300 300 301 301 301 301 301 301 301 302 302 302 303 303 303 303 303 303 303 303 303 303 303 303 302 302 301 301 300 299 299 298 298 297 296 295 295 294 293 292 291 290 289 288 286 285 283 282 281
281 282 282 283 283 284 284 285 285 285 286 286 286 287 287 287 288 288 289 289 290 291 291 292 293 294 295 296 296 297 298 298 299 300 300 300 300 301 301 301 301 301 301 301 301 301 302 302 303 303 303 303 303 303 303 303 303 303 303 302 302 302 301 301 300 299 299 298 298 297 297 296 295 294 293 292 291 290 289 288 286 285 283 282 280
281 282 282 283 283 284 284 285 285 285 286 286 286 286 287 287 288 288 289 290 290 291 292 293 294 295 296 296 297 298 298 299 299 300 300 300 300 300 301 301 301 301 301 301 301 301 302 302 303 303 303 304 303 303 303 303 303 303 303 302 302 301 301 301 300 299 299 299 298 297 296 296 295 294 293 292 291 290 289 288 287 285 284 282 281
281 282 282 283 283 284 284 284 285 285 285 286 286 286 287 287 288 289 289 290 291 292 293 294 295 296 297 297 298 298 299 299 299 300 300 300 300 300 300 300 300 301 301 301 301 302 302 303 303 304 304 304 303 303 303 303 303 303 303 302 302 302 301 301 300 300 299 299 298 297 297 296 295 294 293 292 291 290 289 288 287 285 284 283 281
282 282 283 283 283 284 284 284 285 285 285 286 286 287 287 288 289 289 290 291 293 294 295 295 296 297 297 298 298 298 299 299 299 299 299 299 300 300 300 300 300 300 301 301 302 303 303 304 304 304 304 303 303 303 303 303 303 303 303 302 302 302 301 301 300 300 300 299 298 298 297 296 295 294 293 292 291 290 289 288 287 285 284 282 281
282 282 283 283 284 284 284 285 285 286 286 287 287 288 288 289 290 291 292 293 294 295 296 296 297 297 298 298 298 299 299 299 299 299 299 300 300 300 300 300 300 301 301 302 302 303 303 304 304 303 303 303 303 303 303 303 303 303 303 303 303 302 302 301 301 300 300 300 299 298 298 297 296 295 294 293 292 291 289 288 286 285 283 282 281
282 282 283 283 284 284 285 285 286 287 287 288 288 289 290 290 291 292 293 294 295 296 296 297 297 298 298 298 299 299 299 300 299 300 300 300 300 300 300 301 301 301 301 302 302 303 303 303 303 303 303 303 303 303 303 303 303 303 303 303 303 302 302 302 301 301 300 300 299 299 298 297 296 296 294 293 292 291 290 288 287 285 283 282 280
282 283 284 284 285 285 286 287 287 288 288 289 289 290 291 292 292 293 294 295 296 296 297 297 297 298 298 298 299 299 300 300 300 300 300 300 301 301 301 301 301 301 302 302 302 302 302 302 302 302 302 302 302 302 302 302 302 302 302 302 302 302 301 301 301 301 300 300 299 298 298 297 296 295 294 293 292 291 289 288 287 285 283 282 280
284 284 285 286 286 287 287 288 288 289 289 290 290 291 292 293 293 294 295 295 296 296 297 297 297 298 298 299 299 300 300 300 300 300 301 301 301 301 301 301 301 301 302 302 302 302 302 302 302 302 302 302 302 302 302 302 301 301 301 301 301 301 301 301 300 300 299 299 298 297 296 296 295 294 293 292 291 290 289 288 286 285 283 282 281
285 286 287 287 287 288 288 288 289 289 290 290 291 292 293 293 294 295 295 296 296 296 297 297 298 298 299 299 300 300 300 300 300 301 301 301 300 300 300 301 301 301 302 302 302 302 302 302 302 303 303 303 303 302 302 302 301 301 300 300 300 300 300 300 300 299 298 298 297 296 295 295 294 293 293 292 291 290 289 287 286 285 284 282 281
287 287 287 287 288 288 288 289 289 290 290 291 292 293 293 294 295 295 295 296 296 297 297 298 299 299 299 300 300 300 300 300 300 300 300 300 300 300 300 301 301 301 301 302 302 302 302 302 303 303 303 303 302 302 302 301 301 300 300 300 300 299 299 299 298 298 297 296 295 295 294 294 293 292 292 291 290 289 288 287 286 285 284 283 282
287 287 287 288 288 288 289 289 290 290 291 292 292 293 294 294 294 295 295 296 297 297 298 299 299 299 300 300 300 300 300 300 300 300 300 300 300 300 301 301 301 301 301 302 302 302 302 302 303 303 303 302 302 302 301 301 301 300 300 299 299 299 298 298 297 296 295 295 294 293 293 293 293 292 291 290 290 289 288 287 286 285 284 283 282
287 287 287 288 288 288 289 290 290 291 291 292 292 293 293 294 294 295 296 297 297 298 299 299 299 300 300 300 300 300 300 299 299 299 299 300 300 300 301 301 301 301 301 301 302 302 302 302 302 302 302 302 302 302 301 301 300 300 299 299 298 298 297 297 296 295 295 294 293 293 293 292 292 292 291 290 289 288 287 286 285 284 283 282 281
287 287 287 288 288 289 289 290 291 291 292 292 293 293 294 294 295 296 297 297 298 298 299 299 299 299 299 299 299 299 299 299 299 299 299 300 300 300 301 301 301 301 301 301 301 301 302 302 302 302 302 302 302 301 301 300 300 299 299 298 298 297 296 296 295 295 294 294 293 293 292 292 292 291 291 290 289 288 287 286 285 283 283 282 281
287 287 288 288 289 289 290 290 291 291 292 293 293 294 295 296 296 297 297 298 298 299 299 299 299 299 299 299 299 299 299 299 299 299 299 299 300 300 300 300 300 300 301 301 301 301 301 301 301 301 301 301 301 301 300 300 299 299 299 298 297 297 296 295 294 294 294 293 293 293 293 292 292 291 290 289 288 287 286 285 284 283 282 281 280
Height
10735 10733 10731 10728 10726 10724 10722 10720 10718 10716 10715 10713 10711 10709 10706 10704 10702 10699 10697 10694 10691 10688 10686 10683 10680 10677 10673 10670 10667 10664 10660 10657 10653 10650 10647 10643 10639 10635 10631 10626 10621 10617 10612 10607 10602 10598 10594 10589 10583 10577 10573 10572 10567 10561 10556 10551 10547 10543 10537 10533 10529 10522 10517 10515 10519 10528 10530 10520 10511 10508 10501 10496 10494 10490 10483 10479 10473 10467 10462 10456 10450 10445 10440 10436 10432
10726 10723 10721 10719 10717 10715 10713 10711 10709 10707 10705 10703 10701 10699 10697 10695 10693 10690 10687 10685 10682 10679 10676 10673 10670 10666 10663 10659 10656 10653 10650 10647 10643 10640 10636 10632 10627 10623 10619 10615 10611 10606 10601 10596 10591 10586 10583 10578 10572 10566 10562 10559 10555 10549 10545 10541 10536 10533 10527 10521 10518 10512 10505 10503 10503 10508 10514 10510 10500 10494 10488 10482 10480 10476 10469 10465 10461 10455 10450 10445 10439 10434 10428 10423 10419
10718 10715 10713 10711 10709 10707 10705 10703 10700 10698 10696 10694 10693 10690 10688 10686 10683 10681 10678 10675 10672 10669 10665 10662 10659 10656 10652 10649 10646 10643 10639 10636 10632 10629 10625 10621 10617 10612 10608 10604 10600 10595 10589 10584 10579 10575 10571 10567 10562 10557 10552 10548 10542 10536 10533 10529 10524 10521 10517 10510 10506 10502 10495 10491 10490 10490 10496 10499 10492 10481 10475 10471 10467 10462 10455 10450 10445 10440 10436 10431 10425 10420 10414 10409 10405
10709 10707 10705 10703 10701 10698 10696 10694 10692 10690 10688 10686 10684 10681 10679 10677 10674 10671 10668 10664 10662 10658 10655 10652 10649 10645 10642 10638 10635 10631 10628 10624 10621 10617 10614 10610 10606 10601 10597 10592 10587 10583 10578 10573 10568 10564 10560 10556 10550 10546 10542 10538 10532 10526 10521 10517 10512 10508 10505 10498 10493 10490 10485 10479 10477 10475 10477 10483 10481 10470 10461 10457 10454 10448 10441 10435 10431 10425 10421 10416 10411 10407 10402 10397 10393
10700 10698 10696 10694 10691 10689 10687 10685 10683 10681 10679 10676 10674 10671 10669 10666 10663 10661 10657 10654 10651 10648 10645 10641 10638 10634 10630 10626 10623 10619 10616 10612 10608 10605 10601 10597 10593 10589 10584 10580 10575 10571 10567 10562 10558 10554 10549 10544 10539 10534 10530 10526 10521 10515 10510 10506 10501 10497 10492 10486 10480 10477 10473 10467 10462 10460 10459 10461 10463 10459 10449 10441 10438 10434 10426 10419 10416 10413 10408 10403 10399 10396 10393 10388 10384
10690 10688 10686 10684 10681 10679 10677 10675 10674 10671 10668 10665 10663 10660 10657 10655 10652 10649 10646 10643 10639 10636 10633 10629 10626 10622 10618 10614 10610 10607 10603 10600 10596 10592 10588 10584 10580 10576 10572 10568 10563 10559 10555 10551 10547 10542 10538 10533 10528 10522 10517 10513 10508 10503 10498 10493 10489 10485 10479 10474 10469 10464 10461 10456 10449 10444 10441 10439 10440 10440 10434 10427 10423 10419 10411 10403 10401 10399 10394 10389 10387 10385 10382 10379 10375
10680 10679 10677 10674 10671 10669 10667 10666 10664 10661 10658 10655 10652 10650 10647 10644 10641 10637 10634 10631 10627 10624 10620 10617 10613 10609 10605 10601 10598 10594 10591 10588 10584 10580 10576 10572 10568 10564 10560 10556 10552 10547 10543 10538 10534 10529 10525 10520 10515 10510 10504 10500 10495 10490 10485 10481 10477 10473 10466 10460 10457 10452 10448 10442 10435 10428 10424 10420 10418 10418 10416 10413 10409 10404 10396 10388 10386 10384 10378 10374 10375 10374 10369 10366 10365
10670 10668 10666 10664 10662 10660 10658 10656 10654 10651 10649 10646 10643 10640 10637 10634 10631 10627 10624 10620 10616 10612 10609 10605 10602 10598 10594 10590 10586 10582 10579 10576 10572 10569 10565 10561 10557 10553 10548 10544 10540 10536 10530 10526 10521 10516 10512 10507 10501 10497 10491 10485 10480 10475 10471 10467 10463 10461 10455 10447 10442 10438 10433 10427 10420 10413 10407 10403 10401 10399 10397 10398 10397 10389 10380 10374 10372 10370 10363 10359 10361 10360 10355 10352 10353
10660 10658 10657 10655 10653 10651 10649 10646 10644 10641 10638 10636 10633 10630 10627 10624 10621 10617 10614 10610 10606 10602 10599 10595 10591 10587 10582 10578 10574 10570 10567 10564 10561 10557 10554 10550 10546 10542 10537 10532 10528 10524 10519 10514 10508 10503 10498 10494 10489 10483 10477 10471 10466 10461 10456 10451 10447 10445 10441 10434 10427 10423 10418 10412 10406 10400 10393 10388 10386 10384 10381 10383 10383 10375 10365 10360 10357 10353 10349 10344 10344 10343 10337 10336 10338
10650 10648 10647 10645 10643 10641 10639 10636 10633 10631 10628 10625 10622 10619 10616 10613 10610 10607 10603 10600 10596 10592 10588 10584 10580 10575 10570 10566 10561 10557 10555 10552 10548 10545 10542 10539 10535 10531 10525 10520 10516 10512 10508 10504 10498 10492 10486 10482 10477 10471 10465 10459 10452 10447 10442 10436 10431 10428 10424 10419 10413 10406 10402 10397 10392 10385 10377 10372 10370 10368 10364 10366 10367 10358 10349 10346 10340 10334 10332 10329 10326 10325 10319 10316 10320
10639 10638 10636 10634 10632 10630 10628 10625 10623 10620 10617 10614 10612 10609 10606 10602 10599 10596 10592 10589 10585 10581 10577 10572 10568 10564 10559 10553 10549 10544 10541 10538 10534 10531 10528 10526 10523 10520 10515 10510 10505 10499 10495 10491 10487 10482 10475 10470 10464 10458 10451 10445 10438 10433 10427 10422 10416 10412 10408 10404 10397 10390 10383 10378 10374 10368 10359 10352 10351 10350 10347 10347 10348 10342 10333 10327 10322 10316 10315 10312 10308 10306 10301 10298 10301
10628 10626 10624 10622 10620 10618 10616 10614 10611 10608 10606 10603 10600 10597 10594 10590 10587 10584 10580 10577 10573 10569 10564 10560 10556 10552 10547 10541 10536 10531 10527 10524 10520 10516 10513 10510 10508 10506 10502 10498 10493 10487 10482 10477 10473 10469 10463 10458 10452 10445 10437 10430 10424 10419 10414 10410 10405 10400 10396 10392 10385 10377 10368 10359 10354 10348 10338 10330 10328 10329 10329 10326 10326 10326 10318 10307 10302 10301 10297 10293 10289 10286 10282 10280 10281
10616 10614 10612 10610 10608 10605 10603 10601 10598 10596 10593 10591 10588 10585 10581 10578 10575 10572 10568 10565 10561 10557 10552 10548 10544 10539 10535 10529 10522 10517 10512 10509 10505 10502 10498 10496 10493 10491 10488 10484 10480 10475 10468 10463 10459 10454 10450 10445 10441 10435 10427 10418 10412 10406 10401 10398 10394 10389 10384 10379 10372 10365 10356 10346 10337 10327 10317 10310 10307 10309 10311 10306 10302 10304 10299 10287 10281 10282 10278 10273 10269 10265 10263 10262 10261
10605 10603 10601 10599 10596 10594 10591 10589 10586 10583 10581 10578 10576 10573 10570 10566 10563 10560 10557 10553 10549 10545 10540 10536 10531 10527 10522 10517 10511 10504 10498 10495 10492 10487 10484 10482 10479 10476 10474 10470 10467 10462 10456 10451 10446 10442 10437 10431 10427 10424 10418 10410 10400 10391 10385 10383 10379 10375 10371 10365 10359 10352 10344 10336 10325 10312 10300 10293 10289 10289 10291 10288 10282 10280 10277 10268 10260 10258 10256 10251 10247 10244 10243 10241 10238
10594 10592 10590 10588 10585 10583 10580 10578 10575 10572 10570 10567 10564 10562 10558 10555 10552 10548 10544 10541 10537 10533 10528 10523 10519 10514 10509 10505 10500 10493 10486 10481 10478 10474 10470 10468 10465 10463 10460 10458 10454 10450 10444 10439 10434 10429 10423 10416 10411 10408 10403 10398 10388 10376 10368 10364 10362 10360 10356 10350 10345 10339 10333 10325 10312 10297 10287 10281 10275 10272 10271 10271 10265 10259 10255 10248 10241 10237 10232 10226 10223 10222 10219 10215 10214
10582 10581 10578 10576 10574 10571 10569 10566 10563 10561 10558 10556 10553 10550 10547 10543 10540 10536 10532 10528 10524 10520 10516 10511 10507 10501 10496 10492 10487 10481 10474 10468 10464 10460 10456 10453 10451 10448 10445 10442 10439 10435 10430 10425 10419 10413 10406 10398 10392 10388 10384 10381 10373 10361 10351 10345 10341 10340 10336 10331 10327 10322 10319 10312 10295 10280 10274 10269 10262 10257 10253 10252 10249 10242 10236 10229 10223 10217 10208 10203 10202 10198 10191 10187 10191
10570 10569 10567 10564 10562 10559 10557 10554 10551 10549 10546 10543 10541 10538 10534 10531 10527 10523 10520 10515 10511 10508 10503 10498 10493 10488 10483 10478 10474 10469 10462 10454 10448 10444 10439 10436 10434 10431 10428 10424 10421 10417 10413 10409 10403 10397 10390 10382 10374 10368 10365 10361 10355 10346 10336 10326 10320 10318 10314 10309 10307 10304 10302 10294 10278 10266 10262 10255 10248 10243 10237 10234 10230 10225 10220 10213 10206 10197 10186 10182 10183 10176 10167 10164 10169
10559 10557 10555 10552 10550 10548 10545 10542 10539 10536 10533 10530 10528 10525 10522 10518 10515 10511 10507 10503 10499 10495 10490 10485 10479 10474 10469 10465 10460 10456 10449 10440 10433 10428 10424 10419 10416 10414 10411 10407 10404 10400 10396 10393 10388 10381 10374 10367 10358 10351 10345 10341 10336 10329 10320 10309 10300 10297 10292 10287 10284 10284 10281 10272 10260 10254 10249 10241 10234 10228 10222 10217 10213 10208 10203 10197 10189 10179 10167 10161 10160 10154 10148 10146 10147
10548 10545 10543 10541 10538 10536 10533 10530 10526 10523 10520 10517 10514 10511 10508 10505 10501 10497 10494 10490 10486 10482 10477 10472 10466 10460 10455 10450 10445 10440 10435 10427 10418 10412 10408 10404 10399 10396 10394 10390 10386 10382 10379 10376 10373 10367 10359 10351 10344 10336 10327 10320 10316 10311 10303 10293 10283 10276 10271 10265 10261 10259 10257 10249 10242 10238 10233 10226 10221 10214 10206 10202 10196 10189 10184 10178 10171 10162 10150 10141 10136 10131 10127 10127 10126
10536 10534 10531 10529 10526 10523 10520 10517 10514 10510 10507 10504 10501 10497 10494 10490 10487 10483 10479 10475 10472 10468 10463 10459 10454 10447 10441 10436 10430 10424 10418 10412 10404 10396 10391 10387 10382 10379 10376 10372 10367 10363 10361 10358 10354 10350 10345 10338 10330 10322 10310 10301 10295 10289 10283 10276 10266 10256 10251 10245 10238 10234 10232 10228 10223 10219 10213 10207 10203 10198 10191 10187 10179 10170 10164 10158 10153 10146 10136 10126 10119 10112 10107 10106 10106
10524 10521 10518 10515 10512 10509 10506 10503 10500 10497 10493 10490 10487 10483 10480 10476 10472 10468 10464 10460 10456 10452 10448 10444 10440 10434 10427 10421 10415 10409 10402 10396 10389 10381 10375 10369 10365 10360 10357 10352 10347 10342 10339 10337 10333 10329 10325 10321 10315 10307 10296 10286 10277 10268 10261 10255 10247 10238 10230 10222 10215 10210 10205 10201 10200 10198 10192 10186 10181 10178 10174 10169 10161 10151 10144 10138 10134 10128 10121 10114 10108 10099 10090 10086 10085
10510 10507 10504 10501 10498 10495 10492 10488 10485 10482 10479 10475 10472 10468 10464 10461 10457 10453 10449 10445 10441 10436 10432 10428 10424 10420 10414 10407 10400 10393 10386 10379 10372 10365 10360 10354 10348 10342 10336 10331 10325 10319 10316 10314 10311 10307 10303 10299 10294 10287 10278 10269 10260 10250 10241 10234 10228 10220 10211 10201 10192 10186 10180 10175 10173 10172 10168 10164 10160 10157 10154 10150 10142 10133 10125 10118 10114 10110 10104 10099 10094 10086 10077 10070 10066
10495 10492 10489 10486 10483 10480 10477 10474 10471 10467 10464 10460 10456 10452 10448 10444 10441 10437 10433 10429 10425 10420 10416 10412 10408 10405 10401 10395 10386 10378 10369 10362 10354 10348 10343 10338 10332 10325 10318 10311 10304 10297 10292 10290 10287 10284 10281 10277 10272 10265 10257 10249 10241 10233 10224 10217 10210 10201 10192 10183 10174 10166 10158 10153 10150 10146 10142 10140 10138 10134 10132 10128 10121 10113 10108 10101 10096 10092 10087 10082 10077 10070 10063 10058 10052
10479 10476 10474 10471 10468 10465 10462 10459 10455 10452 10448 10444 10440 10436 10432 10428 10424 10420 10416 10412 10408 10404 10399 10395 10392 10389 10385 10381 10375 10366 10356 10346 10338 10331 10326 10321 10316 10309 10302 10294 10286 10277 10271 10268 10265 10261 10258 10255 10250 10244 10236 10228 10220 10213 10207 10200 10192 10182 10173 10164 10155 10147 10140 10134 10130 10125 10121 10120 10116 10112 10109 10106 10099 10092 10088 10083 10078 10074 10070 10064 10060 10055 10049 10045 10040
10464 10461 10459 10456 10453 10450 10447 10443 10440 10436 10432 10428 10424 10420 10416 10412 10407 10403 10399 10395 10391 10387 10382 10378 10374 10371 10368 10365 10360 10354 10344 10333 10324 10317 10310 10305 10300 10293 10286 10279 10271 10261 10254 10249 10245 10241 10236 10231 10225 10219 10213 10205 10197 10190 10186 10180 10172 10162 10153 10144 10135 10127 10120 10114 10109 10105 10102 10100 10097 10092 10089 10086 10080 10073 10068 10063 10059 10057 10052 10047 10043 10040 10035 10031 10027
10450 10447 10444 10442 10438 10435 10432 10428 10424 10420 10416 10412 10409 10405 10400 10396 10391 10387 10382 10378 10374 10370 10365 10361 10356 10353 10349 10345 10342 10337 10329 10319 10309 10301 10295 10289 10283 10277 10270 10263 10255 10247 10238 10231 10226 10221 10216 10209 10201 10194 10188 10182 10174 10167 10162 10157 10150 10143 10135 10126 10116 10107 10101 10095 10089 10084 10081 10079 10076 10073 10071 10067 10062 10057 10051 10045 10042 10040 10035 10030 10028 10026 10021 10016 10015
10435 10433 10430 10427 10423 10420 10416 10412 10409 10405 10401 10397 10393 10388 10384 10380 10376 10371 10367 10362 10358 10352 10347 10343 10338 10334 10330 10326 10321 10317 10310 10300 10291 10283 10277 10271 10266 10260 10254 10246 10238 10231 10223 10216 10210 10206 10201 10193 10184 10176 10168 10161 10155 10148 10140 10133 10127 10122 10116 10108 10099 10091 10084 10077 10070 10064 10060 10058 10056 10055 10053 10049 10044 10041 10035 10029 10026 10023 10018 10013 10012 10011 10006 10002 10002
10421 10418 10415 10412 10409 10405 10401 10398 10394 10389 10385 10381 10376 10372 10368 10363 10359 10354 10349 10345 10341 10336 10330 10325 10320 10315 10310 10305 10301 10297 10291 10282 10272 10264 10258 10253 10247 10243 10238 10231 10223 10215 10206 10199 10194 10190 10185 10178 10169 10161 10152 10144 10137 10131 10123 10115 10108 10102 10096 10088 10081 10074 10067 10059 10052 10046 10042 10038 10037 10037 10035 10031 10027 10024 10019 10015 10011 10007 10001 9997 9996 9995 9991 9987 9988
10407 10404 10401 10397 10394 10390 10387 10383 10379 10374 10370 10365 10361 10356 10351 10346 10341 10336 10331 10326 10322 10317 10313 10308 10302 10296 10291 10284 10278 10275 10271 10265 10257 10247 10240 10234 10227 10221 10216 10210 10203 10195 10187 10180 10174 10169 10163 10157 10149 10141 10131 10123 10117 10111 10105 10098 10092 10086 10079 10071 10064 10058 10051 10043 10035 10029 10025 10021 10018 10017 10015 10013 10010 10007 10003 10000 9997 9992 9986 9982 9980 9979 9976 9973 9972
10393 10389 10386 10382 10379 10375 10372 10368 10364 10359 10355 10351 10346 10341 10335 10329 10325 10320 10314 10308 10303 10299 10294 10289 10283 10277 10271 10264 10256 10250 10246 10242 10237 10230 10224 10218 10211 10203 10195 10187 10177 10168 10160 10155 10150 10144 10137 10130 10124 10116 10106 10098 10093 10089 10084 10079 10073 10068 10062 10055 10048 10041 10034 10028 10020 10013 10010 10006 10001 9998 9996 9993 9991 9989 9985 9983 9981 9977 9972 9968 9965 9963 9961 9959 9958
10378 10374 10370 10367 10363 10360 10356 10353 10349 10345 10341 10337 10332 10327 10320 10313 10307 10302 10297 10291 10286 10280 10275 10269 10263 10256 10250 10244 10238 10231 10223 10217 10212 10206 10201 10196 10191 10186 10179 10169 10157 10145 10135 10128 10122 10117 10111 10105 10099 10092 10083 10075 10069 10064 10061 10057 10053 10048 10043 10038 10032 10024 10016 10010 10004 9998 9994 9991 9987 9982 9979 9975 9972 9971 9969 9966 9965 9962 9958 9954 9951 9949 9947 9945 9945
10362 10358 10355 10351 10348 10345 10341 10338 10334 10329 10325 10321 10316 10312 10307 10300 10293 10286 10279 10273 10267 10261 10255 10249 10243 10236 10230 10223 10218 10212 10205 10197 10190 10184 10178 10173 10168 10164 10158 10150 10139 10127 10117 10108 10099 10092 10087 10081 10076 10069 10063 10057 10050 10044 10040 10035 10031 10027 10022 10017 10012 10006 9998 9992 9987 9982 9979 9975 9971 9968 9963 9958 9955 9954 9953 9950 9949 9948 9945 9941 9938 9936 9934 9932 9932
10346 10343 10340 10337 10334 10330 10326 10322 10317 10312 10308 10303 10299 10295 10291 10286 10280 10273 10265 10258 10250 10243 10235 10228 10222 10217 10210 10204 10198 10192 10186 10180 10172 10165 10158 10151 10146 10141 10136 10128 10119 10108 10099 10092 10085 10077 10069 10063 10056 10049 10042 10036 10030 10025 10022 10017 10012 10008 10003 9997 9992 9987 9981 9975 9970 9966 9962 9959 9955 9952 9948 9943 9940 9939 9937 9935 9933 9932 9931 9928 9925 9923 9921 9920 9920
10332 10329 10326 10323 10319 10314 10310 10305 10300 10295 10291 10286 10282 10278 10273 10269 10264 10259 10253 10247 10239 10230 10221 10212 10205 10199 10192 10186 10179 10174 10168 10162 10155 10148 10141 10134 10128 10122 10116 10109 10102 10091 10080 10071 10065 10059 10052 10047 10040 10033 10025 10017 10009 10004 10001 9999 9994 9989 9983 9977 9971 9967 9962 9957 9952 9948 9945 9942 9939 9936 9932 9929 9926 9923 9922 9921 9918 9917 9916 9914 9912 9911 9909 9907 9907
10317 10314 10311 10307 10302 10297 10293 10288 10283 10279 10274 10269 10265 10260 10255 10250 10246 10241 10237 10232 10226 10219 10211 10201 10193 10185 10178 10171 10164 10157 10151 10145 10138 10131 10124 10117 10110 10104 10097 10091 10085 10076 10065 10055 10047 10039 10033 10028 10023 10017 10009 10000 9992 9985 9980 9978 9975 9971 9965 9959 9954 9948 9943 9939 9935 9931 9928 9925 9923 9920 9917 9914 9911 9909 9908 9907 9904 9902 9901 9900 9899 9898 9897 9895 9895
10302 10299 10295 10291 10286 10281 10276 10272 10267 10263 10258 10253 10248 10243 10237 10233 10228 10223 10218 10213 10208 10203 10197 10189 10181 10173 10165 10158 10151 10143 10134 10127 10120 10113 10105 10098 10090 10083 10078 10073 10067 10060 10051 10042 10033 10025 10017 10011 10007 10001 9993 9985 9977 9969 9963 9959 9958 9954 9949 9943 9938 9934 9929 9924 9920 9916 9913 9909 9907 9904 9902 9899 9896 9894 9893 9892 9890 9888 9887 9886 9886 9885 9884 9884 9884
10285 10282 10278 10274 10269 10264 10260 10255 10251 10246 10241 10237 10231 10226 10221 10215 10210 10205 10200 10195 10190 10185 10179 10173 10167 10161 10153 10144 10136 10128 10119 10110 10102 10094 10086 10078 10071 10063 10057 10052 10047 10041 10035 10027 10018 10010 10002 9996 9992 9987 9980 9971 9963 9955 9949 9944 9942 9940 9936 9929 9923 9919 9915 9911 9906 9902 9899 9896 9892 9890 9887 9884 9882 9880 9879 9878 9876 9875 9874 9873 9873 9872 9871 9871 9872
10268 10264 10261 10256 10252 10248 10243 10239 10234 10229 10224 10219 10214 10209 10204 10198 10193 10188 10183 10177 10172 10166 10161 10156 10150 10145 10139 10131 10122 10113 10103 10094 10086 10078 10069 10060 10052 10044 10038 10032 10026 10021 10016 10010 10003 9996 9989 9983 9978 9973 9966 9958 9950 9942 9936 9931 9927 9926 9923 9917 9910 9905 9901 9897 9893 9889 9885 9883 9880 9876 9874 9871 9869 9867 9866 9865 9863 9862 9861 9860 9859 9859 9859 9859 9859
10251 10247 10243 10239 10235 10230 10226 10221 10217 10212 10207 10202 10197 10192 10186 10181 10176 10171 10165 10160 10154 10149 10143 10138 10132 10126 10120 10114 10106 10097 10088 10078 10070 10062 10053 10044 10036 10028 10021 10015 10010 10004 9998 9993 9988 9982 9976 9970 9964 9959 9952 9944 9936 9929 9922 9917 9913 9910 9908 9905 9899 9893 9887 9884 9880 9876 9873 9870 9867 9864 9862 9859 9857 9855 9854 9852 9851 9850 9849 9848 9847 9847 9846 9846 9846
10234 10230 10226 10222 10217 10212 10208 10203 10198 10193 10188 10184 10179 10174 10169 10164 10159 10153 10148 10143 10137 10132 10126 10120 10113 10107 10100 10094 10087 10080 10072 10064 10056 10047 10038 10030 10022 10015 10007 10001 9995 9989 9983 9977 9971 9966 9961 9955 9951 9945 9939 9932 9925 9917 9909 9904 9900 9896 9893 9890 9886 9881 9876 9871 9867 9864 9860 9857 9854 9852 9849 9847 9845 9843 9842 9841 9839 9838 9837 9836 9836 9835 9834 9834 9834
10217 10213 10208 10204 10199 10194 10189 10184 10179 10175 10170 10165 10161 10156 10151 10146 10141 10135 10130 10125 10119 10114 10107 10101 10094 10088 10081 10074 10067 10061 10054 10048 10040 10031 10022 10015 10008 10000 9993 9986 9980 9975 9969 9963 9957 9950 9944 9938 9934 9930 9925 9919 9913 9905 9898 9891 9886 9882 9879 9876 9872 9868 9864 9859 9855 9851 9848 9846 9843 9840 9837 9835 9833 9831 9830 9829 9828 9826 9826 9825 9825 9824 9823 9823 9822
10199 10195 10190 10185 10180 10175 10170 10165 10160 10156 10151 10146 10142 10137 10132 10127 10122 10117 10112 10106 10100 10095 10088 10082 10075 10069 10062 10055 10048 10042 10036 10029 10021 10013 10006 9999 9991 9984 9976 9970 9964 9959 9955 9949 9944 9938 9930 9924 9918 9914 9909 9904 9898 9892 9885 9878 9872 9868 9864 9861 9858 9855 9850 9847 9843 9839 9836 9834 9831 9828 9826 9823 9821 9820 9818 9817 9816 9815 9814 9814 9813 9813 9812 9812 9812
10180 10176 10171 10166 10162 10157 10152 10147 10142 10137 10132 10127 10122 10117 10112 10108 10103 10098 10093 10088 10082 10076 10070 10064 10058 10051 10044 10037 10030 10024 10017 10010 10003 9996 9989 9982 9975 9967 9960 9953 9948 9943 9939 9935 9931 9926 9920 9913 9906 9901 9897 9892 9887 9881 9875 9868 9861 9855 9851 9848 9845 9842 9839 9835 9831 9827 9825 9822 9819 9817 9815 9813 9810 9809 9807 9806 9805 9804 9803 9803 9803 9802 9802 9801 9801
10161 10157 10153 10148 10143 10138 10133 10128 10123 10118 10113 10108 10103 10098 10094 10090 10085 10080 10075 10069 10064 10058 10052 10046 10041 10035 10027 10020 10014 10007 10000 9993 9985 9979 9974 9967 9960 9952 9945 9938 9932 9927 9922 9918 9915 9912 9907 9902 9895 9889 9885 9880 9876 9870 9865 9859 9854 9847 9841 9836 9833 9831 9828 9825 9821 9817 9814 9812 9809 9807 9805 9803 9801 9799 9797 9796 9795 9794 9793 9793 9792 9792 9792 9791 9791
10142 10138 10134 10129 10124 10119 10114 10109 10104 10099 10095 10090 10085 10080 10076 10071 10066 10062 10057 10051 10046 10040 10034 10028 10023 10017 10011 10004 9998 9991 9984 9976 9969 9963 9958 9951 9945 9938 9931 9925 9919 9913 9907 9903 9899 9895 9892 9888 9883 9878 9872 9868 9863 9859 9854 9849 9844 9839 9833 9828 9823 9820 9817 9815 9812 9808 9805 9802 9800 9798 9795 9793 9791 9789 9788 9787 9786 9785 9784 9783 9782 9782 9782 9782 9781
10124 10120 10115 10110 10105 10100 10095 10091 10086 10081 10077 10072 10067 10062 10057 10053 10048 10043 10038 10033 10027 10022 10016 10011 10005 9999 9993 9987 9981 9975 9967 9960 9954 9948 9942 9936 9930 9923 9917 9912 9905 9899 9894 9889 9884 9880 9877 9873 9870 9865 9860 9855 9850 9846 9841 9837 9833 9828 9824 9819 9815 9811 9808 9805 9802 9799 9796 9793 9791 9788 9786 9785 9783 9781 9779 9777 9776 9776 9775 9774 9773 9773 9772 9772 9772
10106 10101 10096 10092 10087 10082 10077 10073 10068 10064 10059 10055 10050 10045 10040 10035 10030 10025 10020 10015 10009 10004 9999 9993 9987 9981 9976 9970 9964 9958 9951 9945 9939 9934 9927 9921 9915 9909 9903 9898 9892 9886 9880 9875 9870 9866 9862 9859 9856 9852 9848 9843 9838 9834 9829 9825 9821 9817 9813 9809 9805 9801 9798 9795 9793 9790 9787 9785 9782 9779 9777 9775 9774 9773 9771 9769 9768 9767 9766 9765 9764 9764 9763 9763 9763
10086 10082 10078 10073 10069 10064 10060 10055 10051 10047 10042 10038 10033 10028 10023 10018 10013 10008 10003 9997 9992 9987 9982 9976 9970 9964 9959 9953 9947 9942 9936 9930 9925 9919 9913 9907 9901 9896 9890 9885 9879 9874 9867 9861 9856 9852 9848 9845 9842 9838 9834 9830 9826 9821 9817 9813 9809 9806 9803 9799 9795 9791 9788 9785 9783 9781 9779 9776 9774 9771 9769 9767 9765 9764 9763 9761 9760 9758 9757 9757 9756 9755 9754 9754 9754
10067 10063 10059 10055 10050 10046 10042 10038 10034 10030 10025 10021 10016 10011 10006 10001 9996 9991 9986 9981 9975 9970 9964 9959 9954 9948 9943 9937 9931 9926 9920 9915 9910 9905 9899 9893 9887 9882 9877 9872 9866 9861 9856 9850 9844 9840 9835 9832 9828 9825 9821 9818 9814 9810 9805 9801 9797 9794 9791 9788 9785 9782 9779 9775 9773 9771 9769 9767 9765 9763 9761 9759 9757 9755 9754 9753 9752 9751 9750 9748 9747 9747 9746 9745 9745
10048 10044 10040 10036 10032 10028 10024 10020 10016 10012 10008 10003 9998 9993 9988 9984 9979 9974 9968 9963 9958 9953 9947 9942 9937 9932 9927 9921 9916 9910 9905 9901 9896 9891 9885 9880 9874 9869 9864 9859 9853 9848 9844 9839 9834 9829 9824 9819 9815 9812 9809 9806 9802 9798 9794 9790 9786 9783 9780 9778 9775 9773 9770 9767 9764 9762 9759 9758 9756 9754 9752 9751 9749 9747 9746 9744 9743 9742 9741 9740 9739 9738 9737 9737 9736
10030 10026 10023 10019 10015 10011 10007 10003 9999 9995 9990 9985 9980 9975 9971 9966 9961 9956 9951 9946 9941 9936 9931 9926 9921 9916 9911 9906 9900 9895 9890 9886 9882 9877 9872 9867 9862 9857 9852 9846 9841 9836 9831 9826 9822 9818 9813 9808 9803 9799 9796 9793 9790 9787 9784 9780 9776 9772 9770 9767 9764 9762 9760 9757 9755 9753 9750 9748 9746 9745 9743 9742 9740 9739 9738 9736 9735 9734 9733 9732 9731 9730 9729 9728 9728